Home   Weather   Portland   Past weeks
Flag for USA

Past Weather in Portland, Oregon, USA — Yesterday and Last 2 Weeks

Now
49 °F

Light rain. Mostly cloudy.


Feels Like: 44 °F
Forecast: 51 / 44 °F
Wind: 13 mph from Southwest

Location: Portland International Airport

Current Time: Mar 30, 2020 at 6:42:37 am

Latest Report: Mar 30, 2020 at 6:02 am


Visibility: 7 mi

Pressure: 29.79 "Hg

Humidity: 84%

Dew Point: 44 °F

Location of PortlandLocation

Past Weather in Portland — Graph

°F

Portland Temperature Yesterday

Maximum temperature yesterday: 58 °F (at 3:53 pm)
Minimum temperature yesterday: 49 °F (at 3:53 am)
Average temperature yesterday: 52 °F

High & Low Weather Summary for the Past Weeks

 TemperatureHumidityPressure
High67 °F (Mar 20, 3:53 pm)93% (Mar 25, 5:53 am)30.30 "Hg (Mar 25, 5:53 am)
Low32 °F (Mar 17, 6:53 am)28% (Mar 16, 1:53 pm)29.74 "Hg (Mar 30, 3:53 am)
Average48 °F69%30.03 "Hg
* Reported Mar 15 5:53 am — Mar 30 5:09 am, Portland. Weather by CustomWeather, © 2020

Note: Actual official high and low records may vary slightly from our data, if they occured in-between our weather recording intervals... More about our weather records

Portland Weather History for the Previous 24 Hours

Scroll right to see more
 ConditionsComfort  
Time TempWeatherWind HumidityBarometerVisibility
5:09 am
Mon, Mar 30
49 °FPartly cloudy.15 mph84%29.75 "Hg10 mi
4:53 am49 °FLight rain. Mostly cloudy.14 mph84%29.75 "Hg10 mi
4:28 am50 °FLight rain. Mostly cloudy.18 mph80%29.76 "Hg7 mi
3:53 am50 °FLight rain. Mostly cloudy.23 mph77%29.74 "Hg10 mi
2:53 am49 °FLight rain. Mostly cloudy.17 mph84%29.75 "Hg10 mi
1:53 am49 °FLight rain. Overcast.17 mph80%29.77 "Hg10 mi
12:53 am51 °FLight rain. Mostly cloudy.16 mph71%29.80 "Hg10 mi
11:53 pm
Sun, Mar 29
51 °FMostly cloudy.12 mph71%29.83 "Hg10 mi
10:53 pm52 °FMostly cloudy.12 mph72%29.87 "Hg10 mi
9:53 pm52 °FOvercast.15 mph72%29.88 "Hg10 mi
8:53 pm54 °FMostly cloudy.6 mph62%29.88 "Hg10 mi
7:53 pm55 °FOvercast.7 mph59%29.88 "Hg10 mi
6:53 pm56 °FMostly cloudy.14 mph55%29.88 "Hg10 mi
5:53 pm57 °FMore clouds than sun.8 mph55%29.89 "Hg10 mi
4:53 pm58 °FBroken clouds.14 mph56%29.90 "Hg10 mi
3:53 pm58 °FBroken clouds.14 mph62%29.90 "Hg10 mi
2:53 pm53 °FLight rain. Partly sunny.12 mph77%29.92 "Hg10 mi
2:00 pm52 °FLight rain. Cloudy.9 mph75%29.94 "Hg10 mi
12:53 pm57 °FPartly sunny.14 mph62%29.94 "Hg10 mi
11:53 am55 °FPartly sunny.14 mph72%29.96 "Hg10 mi
10:53 am53 °FBroken clouds.14 mph77%29.96 "Hg10 mi
9:53 am51 °FMore clouds than sun.13 mph83%29.95 "Hg10 mi
8:53 am50 °FOvercast.8 mph83%29.95 "Hg10 mi
7:53 am49 °FMore clouds than sun.8 mph86%29.94 "Hg10 mi
6:53 am49 °FMostly cloudy.8 mph86%29.93 "Hg10 mi
6:06 am49 °FMostly cloudy.6 mph86%29.93 "Hg10 mi
Weather by CustomWeather, © 2020

See weather overview

Advertising